Weather History for Paynesville, MN

Change the Weather History Date:

Sunday, March 3, 2013

  Actual Average (KLJF) Record (KLJF)
Temperature  
Mean Temperature 24 °F -  
Max Temperature 30 °F 33 °F 62 °F (1983)
Min Temperature 17 °F 14 °F -15 °F (1971)
Degree Days  
Heating Degree Days 42    
Moisture  
Dew Point 12 °F    
Average Humidity 59    
Maximum Humidity 76    
Minimum Humidity 42    
Precipitation  
Precipitation 0.00 in - - ()
Sea Level Pressure  
Sea Level Pressure 29.99 in    
Wind  
Wind Speed 9 mph (ESE)    
Max Wind Speed 16 mph    
Max Gust Speed 24 mph    
Visibility 10 miles    
Events      
Averages and records for this station are not official NWS values.
T = Trace of Precipitation, MM = Missing Value Source: NWS Daily Summary

Daily Weather History Graph

Daily Weather History Graph

Search for Another Location

Airport:

Trip Planner

Search our weather history database for the weather conditions in past years. The results will help you decide how hot, cold, wet, or windy it might be!

Date:

Astronomy

Mar. 03, 2013 Rise Set
Actual Time 6:53 AM CST 6:09 PM CST
Civil Twilight 6:23 AM CST 6:38 PM CST
Nautical Twilight 5:49 AM CST 7:13 PM CST
Astronomical Twilight 5:15 AM CST 7:47 PM CST
Moon 12:06 AM CST (3/3) 9:50 AM CST (3/3)
Length of Visible Light 12h 15m
Length of Day
11h 16m
Waning Gibbous, 63% of the Moon is Illuminated
Mar 3
Waning Gibbous
Mar 4
Last Quarter
Mar 11
New
Mar 19
First Quarter
Mar 27
Full

Hourly Weather History & Observations

Time (CST) Temp. Windchill Dew Point Humidity Pressure Visibility Wind Dir Wind Speed Gust Speed Precip Events Conditions
12:13 AM 21.7 °F 14.3 °F 12.0 °F 66% 30.11 in 10.0 mi ESE 5.8 mph - N/A   Overcast
12:33 AM 21.9 °F 15.7 °F 12.0 °F 66% 30.10 in 10.0 mi SSE 4.6 mph - N/A   Overcast
12:53 AM 21.4 °F 15.1 °F 12.2 °F 68% 30.09 in 10.0 mi SE 4.6 mph - N/A   Overcast
1:13 AM 21.2 °F 14.9 °F 12.2 °F 68% 30.09 in 10.0 mi SSE 4.6 mph - N/A   Overcast
1:33 AM 21.0 °F 14.6 °F 12.9 °F 71% 30.09 in 10.0 mi SE 4.6 mph - N/A   Overcast
2:13 AM 21.0 °F 13.4 °F 14.0 °F 74% 30.09 in 10.0 mi SE 5.8 mph - N/A   Overcast
2:33 AM 21.2 °F 12.6 °F 14.5 °F 75% 30.08 in 10.0 mi SE 6.9 mph - N/A   Overcast
2:53 AM 21.2 °F 12.6 °F 14.7 °F 76% 30.07 in 10.0 mi ESE 6.9 mph - N/A   Overcast
3:13 AM 21.2 °F 11.7 °F 14.5 °F 75% 30.06 in 10.0 mi SE 8.1 mph - N/A   Overcast
3:33 AM 21.0 °F 11.4 °F 13.8 °F 74% 30.05 in 10.0 mi SE 8.1 mph - N/A   Mostly Cloudy
3:53 AM 20.7 °F 11.9 °F 12.9 °F 72% 30.05 in 10.0 mi SE 6.9 mph - N/A   Mostly Cloudy
4:13 AM 19.9 °F 11.1 °F 12.2 °F 72% 30.04 in 10.0 mi ESE 6.9 mph - N/A   Scattered Clouds
4:33 AM 19.2 °F 11.3 °F 12.0 °F 74% 30.05 in 10.0 mi ESE 5.8 mph - N/A   Clear
4:53 AM 19.2 °F 10.2 °F 12.0 °F 74% 30.05 in 10.0 mi SE 6.9 mph - N/A   Scattered Clouds
5:13 AM 18.9 °F 9.8 °F 11.5 °F 73% 30.04 in 10.0 mi ESE 6.9 mph - N/A   Scattered Clouds
5:33 AM 18.5 °F 9.3 °F 11.3 °F 73% 30.04 in 10.0 mi ESE 6.9 mph - N/A   Clear
5:52 AM 18.1 °F 10.0 °F 10.9 °F 73% 30.05 in 10.0 mi East 5.8 mph - N/A   Clear
6:13 AM 17.4 °F 8.0 °F 10.2 °F 73% 30.05 in 10.0 mi ESE 6.9 mph - N/A   Scattered Clouds
6:53 AM 18.0 °F 8.7 °F 9.0 °F 68% 30.05 in 10.0 mi ESE 6.9 mph - N/A   Mostly Cloudy
7:13 AM 18.1 °F 8.9 °F 8.4 °F 66% 30.05 in 10.0 mi ESE 6.9 mph - N/A   Mostly Cloudy
7:33 AM 18.1 °F 10.0 °F 8.6 °F 66% 30.05 in 10.0 mi ESE 5.8 mph - N/A   Mostly Cloudy
7:53 AM 19.0 °F 9.0 °F 9.7 °F 67% 30.04 in 10.0 mi ESE 8.1 mph - N/A   Mostly Cloudy
8:12 AM 19.8 °F 9.1 °F 10.9 °F 69% 30.04 in 10.0 mi ESE 9.2 mph - N/A   Overcast
8:33 AM 21.2 °F 10.1 °F 12.0 °F 68% 30.04 in 10.0 mi ESE 10.4 mph - N/A   Overcast
8:53 AM 21.9 °F 11.7 °F 12.4 °F 67% 30.04 in 10.0 mi ESE 9.2 mph - N/A   Overcast
9:13 AM 22.1 °F 12.0 °F 12.6 °F 67% 30.03 in 10.0 mi ESE 9.2 mph - N/A   Overcast
9:33 AM 23.7 °F 15.6 °F 13.6 °F 65% 30.03 in 10.0 mi ESE 6.9 mph - N/A   Overcast
9:53 AM 24.8 °F 15.3 °F 14.9 °F 66% 30.02 in 10.0 mi ESE 9.2 mph 17.3 mph N/A   Overcast
10:13 AM 25.7 °F 14.6 °F 15.6 °F 66% 30.02 in 10.0 mi SE 12.7 mph 16.1 mph N/A   Overcast
10:33 AM 26.2 °F 15.2 °F 16.0 °F 65% 30.02 in 10.0 mi ESE 12.7 mph - N/A   Overcast
10:53 AM 27.0 °F 15.6 °F 16.5 °F 65% 30.02 in 10.0 mi ESE 13.8 mph - N/A   Overcast
11:13 AM 27.3 °F 16.6 °F 16.7 °F 64% 30.01 in 10.0 mi ESE 12.7 mph - N/A   Overcast
11:33 AM 28.4 °F 17.0 °F 17.1 °F 63% 30.01 in 10.0 mi ESE 15.0 mph 20.7 mph N/A   Mostly Cloudy
11:53 AM 28.4 °F 17.0 °F 16.9 °F 62% 30.00 in 10.0 mi ESE 15.0 mph 20.7 mph N/A   Mostly Cloudy
12:13 PM 28.2 °F 17.7 °F 16.0 °F 60% 30.00 in 10.0 mi ESE 12.7 mph 21.9 mph N/A   Mostly Cloudy
12:33 PM 29.1 °F 19.4 °F 14.4 °F 54% 29.99 in 10.0 mi ESE 11.5 mph 17.3 mph N/A   Scattered Clouds
12:53 PM 29.3 °F 18.6 °F 11.5 °F 47% 29.98 in 10.0 mi SE 13.8 mph 21.9 mph N/A   Scattered Clouds
1:13 PM 29.3 °F 18.2 °F 12.0 °F 49% 29.97 in 10.0 mi ESE 15.0 mph 20.7 mph N/A   Clear
1:33 PM 29.8 °F 19.3 °F 9.0 °F 42% 29.97 in 10.0 mi ESE 13.8 mph - N/A   Clear
1:53 PM 29.8 °F 19.3 °F 9.1 °F 42% 29.95 in 10.0 mi SE 13.8 mph 21.9 mph N/A   Clear
2:13 PM 29.8 °F 18.4 °F 9.3 °F 42% 29.94 in 10.0 mi ESE 16.1 mph - N/A   Clear
2:33 PM 30.0 °F 19.1 °F 9.1 °F 42% 29.94 in 10.0 mi SE 15.0 mph 20.7 mph N/A   Clear
2:53 PM 30.2 °F 19.3 °F 9.7 °F 42% 29.94 in 10.0 mi ESE 15.0 mph 18.4 mph N/A   Clear
3:13 PM 29.8 °F 18.4 °F 9.1 °F 42% 29.94 in 10.0 mi ESE 16.1 mph 21.9 mph N/A   Clear
3:33 PM 29.3 °F 18.2 °F 8.8 °F 42% 29.94 in 10.0 mi SE 15.0 mph 24.2 mph N/A   Clear
3:53 PM 29.3 °F 20.2 °F 11.1 °F 47% 29.93 in 10.0 mi ESE 10.4 mph - N/A   Clear
4:13 PM 29.1 °F 18.4 °F 10.0 °F 45% 29.93 in 10.0 mi East 13.8 mph - N/A   Scattered Clouds
4:33 PM 29.1 °F 17.9 °F 10.0 °F 45% 29.93 in 10.0 mi ESE 15.0 mph 19.6 mph N/A   Scattered Clouds
4:53 PM 28.8 °F 19.0 °F 11.1 °F 48% 29.93 in 10.0 mi ESE 11.5 mph - N/A   Mostly Cloudy
5:13 PM 28.6 °F 19.3 °F 10.6 °F 47% 29.93 in 10.0 mi ESE 10.4 mph - N/A   Overcast
5:33 PM 28.6 °F 19.3 °F 10.4 °F 47% 29.93 in 10.0 mi ESE 10.4 mph - N/A   Overcast
5:53 PM 28.4 °F 19.7 °F 10.2 °F 47% 29.93 in 10.0 mi ESE 9.2 mph - N/A   Overcast
6:33 PM 28.0 °F 18.6 °F 12.4 °F 52% 29.93 in 10.0 mi East 10.4 mph - N/A   Overcast
6:53 PM 28.0 °F 18.1 °F 11.3 °F 50% 29.93 in 10.0 mi East 11.5 mph 20.7 mph N/A   Overcast
7:13 PM 27.7 °F 17.6 °F 12.6 °F 53% 29.93 in 10.0 mi East 11.5 mph - N/A   Overcast
7:33 PM 27.5 °F 17.4 °F 13.1 °F 55% 29.93 in 10.0 mi East 11.5 mph - N/A   Overcast
7:53 PM 27.5 °F 17.4 °F 12.9 °F 54% 29.93 in 10.0 mi East 11.5 mph - N/A   Overcast
8:13 PM 27.5 °F 16.3 °F 12.4 °F 53% 29.93 in 10.0 mi East 13.8 mph 17.3 mph N/A   Overcast
8:33 PM 27.1 °F 16.4 °F 12.6 °F 54% 29.93 in 10.0 mi ESE 12.7 mph - N/A   Overcast
8:53 PM 27.1 °F 15.9 °F 12.6 °F 54% 29.93 in 10.0 mi ESE 13.8 mph 18.4 mph N/A   Overcast
9:13 PM 27.0 °F 15.2 °F 12.9 °F 56% 29.92 in 10.0 mi ESE 15.0 mph - N/A   Overcast
9:33 PM 27.0 °F 15.6 °F 13.1 °F 56% 29.91 in 10.0 mi ESE 13.8 mph 19.6 mph N/A   Overcast
9:53 PM 27.1 °F 15.9 °F 12.6 °F 54% 29.92 in 10.0 mi ESE 13.8 mph 18.4 mph N/A   Overcast
10:13 PM 27.3 °F 16.1 °F 12.0 °F 53% 29.92 in 10.0 mi ESE 13.8 mph 19.6 mph N/A   Overcast
10:33 PM 27.1 °F 16.4 °F 12.0 °F 53% 29.92 in 10.0 mi ESE 12.7 mph 21.9 mph N/A   Overcast
10:53 PM 27.0 °F 16.1 °F 12.4 °F 54% 29.92 in 10.0 mi ESE 12.7 mph - N/A   Overcast
11:13 PM 27.1 °F 16.9 °F 12.0 °F 53% 29.93 in 10.0 mi SE 11.5 mph 18.4 mph N/A   Overcast
11:33 PM 27.0 °F 16.7 °F 12.4 °F 54% 29.93 in 10.0 mi SE 11.5 mph - N/A   Overcast
11:53 PM 26.4 °F 14.5 °F 13.5 °F 58% 29.93 in 10.0 mi SE 15.0 mph 20.7 mph N/A   Overcast